Location: Joplin
(37.0842°N, 94.5131°W)
Time: 16:19:01
(UTC-05:00)

Tiangong 2 - Visible Passes

Search period start: 20 June 2018 00:00
Search period end: 30 June 2018 00:00
Orbit: 291 x 297 km, 42.8° (Epoch: 20 June)

Date Brightness Start Highest point End Pass type
(mag) Time Alt. Az. Time Alt. Az. Time Alt. Az.
24 Jun 3.1 05:05:23 10° S 05:06:42 13° SE 05:08:01 10° ESE visible
25 Jun 2.0 05:10:24 12° SSW 05:12:21 27° SSE 05:14:37 10° E visible
26 Jun 0.6 05:15:46 12° SW 05:18:00 64° SSE 05:20:32 10° ENE visible
27 Jun 3.6 03:50:39 11° ESE 03:50:39 11° ESE 03:50:49 10° ESE visible
27 Jun 0.9 05:21:08 10° WSW 05:23:39 60° NNW 05:26:10 10° ENE visible
28 Jun 2.7 03:55:45 21° E 03:55:45 21° E 03:56:56 10° E visible
28 Jun 1.9 05:26:53 10° W 05:29:16 34° NNW 05:31:39 10° NE visible
29 Jun 1.7 04:00:44 40° ENE 04:00:44 40° ENE 04:02:32 10° ENE visible
